Flag for New Zealand Weather past 2 weeks in Auckland, New Zealand

Now
59 °F

Sprinkles. Partly sunny.


Feels Like: 57 °F
Forecast: 55 / 60 °F
Wind: 12 mph from Northeast

Location: Auckland Airport

Current Time: Aug 31, 2015 at 4:45:01 PM

Latest Report: Aug 31, 2015 at 3:30 PM


Visibility: 5 mi

Pressure: 29.89 "Hg

Humidity: 94%

Dew point: 57 °F

Location of AucklandLocation

Historic Weather in Auckland — Graph

°F

Auckland temperature yesterday

Maximum temperature yesterday: 63 °F (at 1:00 PM)
Minimum temperature yesterday: 54 °F (at 12:00 AM)
Average temperature yesterday: 57 °F

Past Weeks' High & Low Weather Summary

 TemperatureHumidityPressure
High63 °F (Aug 17, 2:00 PM)100% (Aug 18, 4:00 PM)30.54 "Hg (Aug 18, 4:00 PM)
Low41 °F (Aug 21, 6:00 AM)55% (Aug 21, 1:00 PM)29.71 "Hg (Aug 16, 3:00 PM)
Average53 °F84%30.22 "Hg
* Reported Aug 16 3:00 PM — Aug 31 3:30 PM, Auckland, Weather by CustomWeather, © 2015

Note: Actual official high and low records may vary slightly from our data, if they occured in-between our weather recording intervals... More about our weather records

Advertising

Auckland weather history for previous 24 hours

 ConditionsComfort  
Time TempWeatherWind HumidityBarometerVisibility
3:30 PM
Mon, Aug 31
59 °FSprinkles. Partly sunny.12 mph94%29.89 "Hg5 mi
3:00 PM59 °FSprinkles. Broken clouds.12 mph94%29.89 "HgN/A
2:30 PM59 °FDrizzle. Broken clouds.12 mph94%29.89 "HgN/A
2:00 PM59 °FLight rain. Mostly cloudy.12 mph94%29.92 "Hg6 mi
1:30 PM57 °FLight rain. Broken clouds.13 mph100%29.92 "Hg3 mi
1:00 PM59 °FRain showers. Mostly cloudy.12 mph94%29.92 "Hg2 mi
12:30 PM59 °FRain showers. Partly sunny.12 mph94%29.92 "Hg2 mi
12:00 PM59 °FLight rain. Mostly cloudy.14 mph94%29.95 "HgN/A
11:30 AM59 °FLight rain. Partly sunny.10 mph100%29.95 "HgN/A
11:00 AM59 °FLight rain. Broken clouds.8 mph94%29.95 "HgN/A
10:30 AM57 °FRain. Partly sunny.6 mph100%29.98 "Hg5 mi
10:00 AM57 °FLight rain. Partly sunny.3 mph100%29.98 "HgN/A
9:30 AM57 °FLight rain. Broken clouds.3 mph100%29.98 "HgN/A
9:00 AM57 °FLight rain. Overcast.5 mph100%29.98 "HgN/A
8:30 AM57 °FDrizzle. Mostly cloudy.3 mph100%29.98 "Hg6 mi
7:30 AM55 °FFog.3 mph100%29.95 "Hg1 mi
7:00 AM55 °FFog.2 mph100%29.98 "Hg1 mi
6:30 AM55 °FFog.1 mph100%29.98 "Hg0 mi
6:00 AM55 °FFog.2 mph100%29.98 "Hg0 mi
5:30 AM55 °FFog.5 mph100%29.98 "Hg0 mi
5:00 AM55 °FFog.2 mph100%29.95 "Hg0 mi
4:30 AM55 °FFog.2 mph100%29.95 "Hg1 mi
4:00 AM55 °FFog.2 mph100%29.98 "Hg3 mi
3:30 AM55 °FFog.3 mph100%29.98 "Hg1 mi
3:00 AM55 °FFog.3 mph100%29.98 "Hg3 mi
2:30 AM55 °FFog.No wind100%30.01 "Hg2 mi
2:00 AM57 °FFog.1 mph100%30.01 "Hg2 mi
1:30 AM55 °FFog.3 mph100%30.01 "Hg3 mi
1:00 AM55 °FFog.5 mph100%30.01 "Hg3 mi
12:30 AM57 °FFog.3 mph100%30.01 "Hg1 mi
12:00 AM57 °FDrizzle. Fog.2 mph100%30.01 "Hg2 mi
11:30 PM
Sun, Aug 30
57 °FPassing clouds.2 mph100%30.01 "HgN/A
11:00 PM57 °FPassing clouds.2 mph100%30.01 "HgN/A
10:30 PM57 °FOvercast.1 mph94%30.01 "HgN/A
10:00 PM57 °FOvercast.No wind100%30.01 "HgN/A
9:30 PM57 °FPassing clouds.1 mph100%30.04 "HgN/A
9:00 PM57 °FOvercast.1 mph100%30.01 "HgN/A
8:30 PM57 °FOvercast.1 mph100%30.01 "HgN/A
8:00 PM57 °FOvercast.No wind94%30.04 "HgN/A
7:30 PM57 °FOvercast.1 mph100%30.04 "HgN/A
7:00 PM57 °FOvercast.3 mph100%30.01 "HgN/A
6:30 PM57 °FPassing clouds.3 mph100%30.01 "HgN/A
6:00 PM57 °FPassing clouds.3 mph100%30.01 "HgN/A
5:30 PM57 °FOvercast.7 mph100%30.01 "HgN/A
5:00 PM59 °FMostly cloudy.7 mph94%30.01 "Hg6 mi
4:30 PM59 °FSprinkles. Mostly cloudy.7 mph94%30.01 "HgN/A
Weather by CustomWeather, © 2015

See weather overviewHow to use our weather pages